Time,TemperatureF,DewpointF,PressureIn,WindDirection,WindDirectionDegrees,WindSpeedMPH,WindSpeedGustMPH,Humidity,HourlyPrecipIn,Conditions,Clouds,dailyrainin,SolarRadiationWatts/m^2,SoftwareType,DateUTC
2013-07-01 00:00:00,56.0,47.0,-100.00,NNW,337,0.0,-999.0,70,-99.99,,,-99.99,0.000000,,2013-07-01 04:00:00,
2013-07-01 00:32:00,56.0,47.0,-100.00,NNW,337,0.0,-999.0,70,-99.99,,,-99.99,0.000000,,2013-07-01 04:32:00,
2013-07-01 00:43:00,56.0,47.0,-100.00,NNW,337,0.0,-999.0,70,-99.99,,,-99.99,0.000000,,2013-07-01 04:43:00,
2013-07-01 00:53:00,56.0,47.0,-100.00,NNW,337,0.0,-999.0,70,-99.99,,,-99.99,0.000000,,2013-07-01 04:53:00,
2013-07-01 01:00:00,55.0,46.0,-100.00,NNW,337,0.0,-999.0,71,-99.99,,,-99.99,0.000000,,2013-07-01 05:00:00,
2013-07-01 01:42:00,55.0,46.0,-100.00,NNW,337,0.0,-999.0,71,-99.99,,,-99.99,0.000000,,2013-07-01 05:42:00,
2013-07-01 01:52:00,55.0,46.0,-100.00,NNW,337,0.0,-999.0,71,-99.99,,,-99.99,0.000000,,2013-07-01 05:52:00,
2013-07-01 02:00:00,54.0,45.0,-100.00,NNW,337,0.0,-999.0,72,-99.99,,,-99.99,0.000000,,2013-07-01 06:00:00,
2013-07-01 02:43:00,54.0,45.0,-100.00,NNW,337,0.0,-999.0,72,-99.99,,,-99.99,0.000000,,2013-07-01 06:43:00,
2013-07-01 02:53:00,54.0,45.0,-100.00,NNW,337,0.0,-999.0,72,-99.99,,,-99.99,0.000000,,2013-07-01 06:53:00,
2013-07-01 03:00:00,53.0,44.0,-100.00,NW,315,0.0,-999.0,72,-99.99,,,-99.99,0.000000,,2013-07-01 07:00:00,
2013-07-01 03:43:00,53.0,44.0,-100.00,NW,315,0.0,-999.0,72,-99.99,,,-99.99,0.000000,,2013-07-01 07:43:00,
2013-07-01 03:53:00,53.0,44.0,-100.00,NW,315,0.0,-999.0,72,-99.99,,,-99.99,0.000000,,2013-07-01 07:53:00,
2013-07-01 04:00:00,52.0,44.0,-100.00,NW,315,0.0,-999.0,73,-99.99,,,-99.99,0.000000,,2013-07-01 08:00:00,
2013-07-01 04:43:00,52.0,44.0,-100.00,NW,315,0.0,-999.0,73,-99.99,,,-99.99,0.000000,,2013-07-01 08:43:00,
2013-07-01 04:52:00,52.0,44.0,-100.00,NW,315,0.0,-999.0,73,-99.99,,,-99.99,0.000000,,2013-07-01 08:52:00,
2013-07-01 05:00:00,52.0,43.0,-100.00,WNW,292,0.0,-999.0,72,-99.99,,,-99.99,0.000000,,2013-07-01 09:00:00,
2013-07-01 05:43:00,52.0,43.0,-100.00,WNW,292,0.0,-999.0,72,-99.99,,,-99.99,0.000000,,2013-07-01 09:43:00,
2013-07-01 05:53:00,52.0,43.0,-100.00,WNW,292,0.0,-999.0,72,-99.99,,,-99.99,0.000000,,2013-07-01 09:53:00,
2013-07-01 06:00:00,50.0,43.0,-100.00,SSW,202,0.0,-999.0,75,-99.99,,,-99.99,0.000000,,2013-07-01 10:00:00,
2013-07-01 06:43:00,50.0,43.0,-100.00,SSW,202,0.0,-999.0,75,-99.99,,,-99.99,0.000000,,2013-07-01 10:43:00,
2013-07-01 06:52:00,50.0,43.0,-100.00,SSW,202,0.0,-999.0,75,-99.99,,,-99.99,0.000000,,2013-07-01 10:52:00,
2013-07-01 07:00:00,51.0,44.0,-100.00,West,270,1.0,-999.0,77,-99.99,,,-99.99,27.840000,,2013-07-01 11:00:00,
2013-07-01 07:43:00,51.0,44.0,-100.00,West,270,1.0,-999.0,77,-99.99,,,-99.99,27.840000,,2013-07-01 11:43:00,
2013-07-01 07:52:00,51.0,44.0,-100.00,West,270,1.0,-999.0,77,-99.99,,,-99.99,27.840000,,2013-07-01 11:52:00,
2013-07-01 08:00:00,56.0,45.0,-100.00,East,90,2.0,-999.0,67,-99.99,,,-99.99,139.199997,,2013-07-01 12:00:00,
2013-07-01 08:33:00,56.0,45.0,-100.00,East,90,2.0,-999.0,67,-99.99,,,-99.99,139.199997,,2013-07-01 12:33:00,
2013-07-01 08:43:00,56.0,45.0,-100.00,East,90,2.0,-999.0,67,-99.99,,,-99.99,139.199997,,2013-07-01 12:43:00,
2013-07-01 08:53:00,56.0,45.0,-100.00,East,90,2.0,-999.0,67,-99.99,,,-99.99,139.199997,,2013-07-01 12:53:00,
2013-07-01 09:00:00,61.0,46.0,-100.00,ESE,112,3.0,-999.0,57,-99.99,,,-99.99,251.720001,,2013-07-01 13:00:00,
2013-07-01 09:43:00,61.0,46.0,-100.00,ESE,112,3.0,-999.0,57,-99.99,,,-99.99,251.720001,,2013-07-01 13:43:00,
2013-07-01 09:53:00,61.0,46.0,-100.00,ESE,112,3.0,-999.0,57,-99.99,,,-99.99,251.720001,,2013-07-01 13:53:00,
2013-07-01 10:00:00,64.0,48.0,-100.00,ENE,67,3.0,-999.0,56,-99.99,,,-99.99,309.720001,,2013-07-01 14:00:00,
2013-07-01 10:43:00,64.0,48.0,-100.00,ENE,67,3.0,-999.0,56,-99.99,,,-99.99,309.720001,,2013-07-01 14:43:00,
2013-07-01 10:53:00,64.0,48.0,-100.00,ENE,67,3.0,-999.0,56,-99.99,,,-99.99,309.720001,,2013-07-01 14:53:00,
2013-07-01 11:00:00,68.0,51.0,-100.00,ENE,67,4.0,-999.0,55,-99.99,,,-99.99,563.760010,,2013-07-01 15:00:00,
2013-07-01 11:43:00,68.0,51.0,-100.00,ENE,67,4.0,-999.0,55,-99.99,,,-99.99,563.760010,,2013-07-01 15:43:00,
2013-07-01 11:53:00,68.0,51.0,-100.00,ENE,67,4.0,-999.0,55,-99.99,,,-99.99,563.760010,,2013-07-01 15:53:00,
2013-07-01 12:00:00,71.0,52.0,-100.00,East,90,5.0,-999.0,52,-99.99,,,-99.99,730.799988,,2013-07-01 16:00:00,
2013-07-01 12:33:00,71.0,52.0,-100.00,East,90,5.0,-999.0,52,-99.99,,,-99.99,730.799988,,2013-07-01 16:33:00,
2013-07-01 12:44:00,71.0,52.0,-100.00,East,90,5.0,-999.0,52,-99.99,,,-99.99,730.799988,,2013-07-01 16:44:00,
2013-07-01 12:53:00,71.0,52.0,-100.00,East,90,5.0,-999.0,52,-99.99,,,-99.99,730.799988,,2013-07-01 16:53:00,
2013-07-01 13:00:00,74.0,53.0,-100.00,ESE,112,5.0,-999.0,48,-99.99,,,-99.99,808.520020,,2013-07-01 17:00:00,
2013-07-01 13:34:00,74.0,53.0,-100.00,ESE,112,5.0,-999.0,48,-99.99,,,-99.99,808.520020,,2013-07-01 17:34:00,
2013-07-01 13:43:00,74.0,53.0,-100.00,ESE,112,5.0,-999.0,48,-99.99,,,-99.99,808.520020,,2013-07-01 17:43:00,
2013-07-01 13:53:00,74.0,53.0,-100.00,ESE,112,5.0,-999.0,48,-99.99,,,-99.99,808.520020,,2013-07-01 17:53:00,
2013-07-01 14:00:00,76.0,53.0,-100.00,East,90,5.0,-999.0,44,-99.99,,,-99.99,849.119995,,2013-07-01 18:00:00,
2013-07-01 14:44:00,76.0,53.0,-100.00,East,90,5.0,-999.0,44,-99.99,,,-99.99,849.119995,,2013-07-01 18:44:00,
2013-07-01 14:53:00,76.0,53.0,-100.00,East,90,5.0,-999.0,44,-99.99,,,-99.99,849.119995,,2013-07-01 18:53:00,
2013-07-01 15:00:00,77.0,53.0,-100.00,East,90,4.0,-999.0,42,-99.99,,,-99.99,763.280029,,2013-07-01 19:00:00,
2013-07-01 15:44:00,77.0,53.0,-100.00,East,90,4.0,-999.0,42,-99.99,,,-99.99,763.280029,,2013-07-01 19:44:00,
2013-07-01 15:53:00,77.0,53.0,-100.00,East,90,4.0,-999.0,42,-99.99,,,-99.99,763.280029,,2013-07-01 19:53:00,
2013-07-01 16:00:00,76.0,55.0,-100.00,SSE,157,7.0,-999.0,48,-99.99,,,-99.99,523.159973,,2013-07-01 20:00:00,
2013-07-01 16:34:00,76.0,55.0,-100.00,SSE,157,7.0,-999.0,48,-99.99,,,-99.99,523.159973,,2013-07-01 20:34:00,
2013-07-01 16:43:00,76.0,55.0,-100.00,SSE,157,7.0,-999.0,48,-99.99,,,-99.99,523.159973,,2013-07-01 20:43:00,
2013-07-01 16:52:00,76.0,55.0,-100.00,SSE,157,7.0,-999.0,48,-99.99,,,-99.99,523.159973,,2013-07-01 20:52:00,
2013-07-01 17:00:00,74.0,54.0,-100.00,SSE,157,6.0,-999.0,49,-99.99,,,-99.99,662.359985,,2013-07-01 21:00:00,
2013-07-01 17:44:00,74.0,54.0,-100.00,SSE,157,6.0,-999.0,49,-99.99,,,-99.99,662.359985,,2013-07-01 21:44:00,
2013-07-01 17:53:00,74.0,54.0,-100.00,SSE,157,6.0,-999.0,49,-99.99,,,-99.99,662.359985,,2013-07-01 21:53:00,
2013-07-01 18:00:00,75.0,52.0,-100.00,SE,135,5.0,-999.0,44,-99.99,,,-99.99,556.799988,,2013-07-01 22:00:00,
2013-07-01 18:43:00,75.0,52.0,-100.00,SE,135,5.0,-999.0,44,-99.99,,,-99.99,556.799988,,2013-07-01 22:43:00,
2013-07-01 18:53:00,75.0,52.0,-100.00,SE,135,5.0,-999.0,44,-99.99,,,-99.99,556.799988,,2013-07-01 22:53:00,
2013-07-01 19:00:00,74.0,47.0,-100.00,NE,45,7.0,-999.0,38,-99.99,,,-99.99,415.279999,,2013-07-01 23:00:00,
2013-07-01 19:44:00,74.0,47.0,-100.00,NE,45,7.0,-999.0,38,-99.99,,,-99.99,415.279999,,2013-07-01 23:44:00,
2013-07-01 19:53:00,74.0,47.0,-100.00,NE,45,7.0,-999.0,38,-99.99,,,-99.99,415.279999,,2013-07-01 23:53:00,
2013-07-01 20:00:00,71.0,42.0,-100.00,ENE,67,7.0,-999.0,34,-99.99,,,-99.99,256.359985,,2013-07-02 00:00:00,
2013-07-01 20:43:00,71.0,42.0,-100.00,ENE,67,7.0,-999.0,34,-99.99,,,-99.99,256.359985,,2013-07-02 00:43:00,
2013-07-01 20:53:00,71.0,42.0,-100.00,ENE,67,7.0,-999.0,34,-99.99,,,-99.99,256.359985,,2013-07-02 00:53:00,
2013-07-01 21:00:00,66.0,39.0,-100.00,NE,45,6.0,-999.0,35,-99.99,,,-99.99,78.879997,,2013-07-02 01:00:00,
2013-07-01 21:43:00,66.0,39.0,-100.00,NE,45,6.0,-999.0,35,-99.99,,,-99.99,78.879997,,2013-07-02 01:43:00,
2013-07-01 21:53:00,66.0,39.0,-100.00,NE,45,6.0,-999.0,35,-99.99,,,-99.99,78.879997,,2013-07-02 01:53:00,
2013-07-01 22:00:00,61.0,37.0,-100.00,NE,45,4.0,-999.0,40,-99.99,,,-99.99,10.440000,,2013-07-02 02:00:00,
2013-07-01 22:34:00,61.0,37.0,-100.00,NE,45,4.0,-999.0,40,-99.99,,,-99.99,10.440000,,2013-07-02 02:34:00,
2013-07-01 22:43:00,61.0,37.0,-100.00,NE,45,4.0,-999.0,40,-99.99,,,-99.99,10.440000,,2013-07-02 02:43:00,
2013-07-01 22:53:00,61.0,37.0,-100.00,NE,45,4.0,-999.0,40,-99.99,,,-99.99,10.440000,,2013-07-02 02:53:00,
2013-07-01 23:00:00,56.0,38.0,-100.00,East,90,3.0,-999.0,49,-99.99,,,-99.99,0.000000,,2013-07-02 03:00:00,
2013-07-01 23:43:00,56.0,38.0,-100.00,East,90,3.0,-999.0,49,-99.99,,,-99.99,0.000000,,2013-07-02 03:43:00,
2013-07-01 23:53:00,56.0,38.0,-100.00,East,90,3.0,-999.0,49,-99.99,,,-99.99,0.000000,,2013-07-02 03:53:00,